www.pogodaiklimat.ru

Погода и климат >> Архив погоды >> Россия >> Астраханская область >> Досанг


ПОГОДА в Досанге

  • Прогноз погоды в Досанге
  • Монитор погоды в Досанге

АРХИВ ПОГОДЫ в Досанге

Время (UTC), дата Ветер
(напр.,м/с)
 
Видим.   Явления Облачность Т
(С)
Тd
(С)
f
(%)
Тe
(С)
Тes
(С)
Комфортность P
(гПа)
Po
(гПа)
Тmin
(С)
Tmax
(С)
R
(мм)
R24
(мм)
S
(см)
06 11.07 В 2 20 км 8/0
[Ac cast Cc]
+30.1 +6.8 23 +29 +37 жарко 1006.3 1008.3
09 11.07 Ю 2 20 км 9/1 600 м
[Cu hum Ac cast Cc]
+32.5 +9.2 24 +32 +41 жарко 1005.5 1007.5
12 11.07 Ю 4 20 км 8/1 600 м
[Cu hum Ac cast Cc]
+33.1 +7.3 20 +31 +35 жарко 1004.2 1006.2
15 11.07 ЮВ 4 20 км 9/3 600 м
[Sc diur, vesp Ac cast Cc]
+30.4 +16.4 43 +34 +34 очень
душно
1003.3 1005.3 +33.7
18 11.07 СЗ 4 10 км 9/3 600 м
[Cb cap Ac cast Cc]
+23.9 +14.4 55 +26 +26 жарко 1004.7 1006.8
21 11.07 С 5 10 км 3/0
[Cc]
+22.9 +13.0 54 +26 +26 жарко 1003.7 1005.8
00 12.07 С 2 10 км 9/0
[Ac cast]
+22.5 +11.9 51 +25 +25 комфорт 1003.0 1005.1
03 12.07 С 5 20 км 6/0
[Ac cast Cc]
+23.2 +11.6 48 +26 +26 жарко 1002.1 1004.2 +21.8
06 12.07 В 6-10
{10}
20 км 6/3 600 м
[Cu med, cong Ci sp]
+31.7 +12.1 30 +32 +35 жарко 999.8 1001.8
09 12.07 Ю 4
{10}
20 км 8/3 600 м
[Cu med, cong Ac cast Ci sp]
+33.3 +17.3 39 +37 +42 очень
душно
999.9 1001.1
12 12.07 З 8-13
{13}
20 км 8/4 600 м
[Cb cap Ac cuf Ci sp]
+29.6 +16.7 46 +33 +34 душно 998.6 1000.7
15 12.07 СЗ 5
{12}
20 км в посл. час ливневой дождь {гроза} 10/3 600 м
[Cb cap Cc]
+19.1 +16.6 85 +20 +21 1001.8 1003.9 +35.5 14
18 12.07 З 5 10 км {гроза, ливн. осадки} 8/6 600 м
[Sc diur, vesp Cc]
+18.0 +15.6 86 +18 +18 1004.4 1006.5
21 12.07 З 4
{10}
10 км 10/0
[Cs]
+16.8 +14.8 88 +16 +16 1006.1 1008.2
00 13.07 СЗ 4 10 км 10/0
[Cs]
+17.1 +13.8 81 +17 +17 1006.7 1008.8
03 13.07 СЗ 4 20 км 10/0
[Ac und]
+17.0 +13.9 82 +17 +17 1007.5 1009.7 +16.8
06 13.07 СЗ 5 20 км 10/4 300 м
[Sc Ac trans Cs]
+20.5 +12.3 59 +22 +24 комфорт 1007.5 1009.6
09 13.07 СЗ 4 10 км слаб. ливневой дождь 10/6 300 м
[Cb cap Ac cuf]
+20.4 +13.8 66 +23 +24 комфорт 1008.6 1010.7
12 13.07 СЗ 3 20 км {ливн. осадки} 10/4 600 м
[Cb cap Ac cuf]
+23.0 +11.8 49 +25 +27 комфорт 1008.4 1010.4
15 13.07 З 3 20 км 3/0
[Ac trans]
+23.9 +13.0 50 +26 +27 жарко 1008.3 1010.4 +24.7 0.1
18 13.07 З 3 10 км 1/0
[Ac trans]
+20.4 +13.0 62 +23 +23 комфорт 1009.5 1011.6
21 13.07 З 2 10 км 10/0
[Cs]
+18.9 +12.6 67 +20 +20 1009.5 1011.6
00 14.07 З 2 10 км 10/0
[Ac As]
+18.4 +13.1 71 +19 +19 1009.3 1011.4
03 14.07 С 1 20 км 10/0
[Ac As]
+17.7 +13.7 77 +19 +19 1009.0 1011.1 +16.8
06 14.07 штиль 0 20 км 10/0
[Ac As]
+20.9 +15.2 70 +24 +29 комфорт 1009.4 1011.5
09 14.07 Ю 1 20 км 10/0
[Ac As]
+22.2 +15.6 66 +26 +32 душно 1009.3 1011.4
12 14.07 ЮВ 5 20 км 10/0
[Ac As]
+22.2 +14.6 62 +26 +27 душно 1009.6 1011.7
15 14.07 Ю 4 20 км 10/4 600 м
[Cb cap Ac cuf Ci sp]
+21.2 +14.4 65 +24 +24 комфорт 1009.0 1011.1 +22.8
18 14.07 Ю 2 10 км 3/0
[Ac cast]
+19.0 +12.5 66 +21 +21 комфорт 1009.0 1011.2
21 14.07 Ю 2 10 км 9/0
[Ci fib]
+17.5 +14.1 80 +18 +18 1008.0 1010.2
00 15.07 ЮЗ 1 10 км ясно +15.9 +13.5 86 +17 +17 1007.8 1010.0
03 15.07 ЮЗ 2 20 км ясно +17.6 +14.4 82 +18 +20 1008.7 1010.8 +15.2
06 15.07 З 1 20 км ясно +25.2 +13.0 47 +27 +41 жарко 1008.7 1010.7
09 15.07 Ю 1 20 км 3/3 600 м
[Cu hum]
+28.5 +10.5 33 +29 +44 жарко 1008.3 1010.4
12 15.07 Ю 2 20 км 6/3 600 м
[Cu hum Ci fib]
+29.9 +8.3 26 +29 +36 жарко 1007.4 1009.5
15 15.07 Ю 2 20 км 3/1 600 м
[Cu hum Ac cast]
+29.5 +9.5 29 +29 +30 жарко 1006.9 1008.9 +30.8
18 15.07 Ю 1 10 км 6/0
[Ac cast]
+23.8 +15.6 60 +27 +27 жарко 1007.8 1009.9
21 15.07 штиль 0 10 км 8/0
[Ac cast]
+21.0 +16.3 75 +24 +24 комфорт 1008.0 1010.1
00 16.07 СВ 2 10 км 9/0
[Ac cast]
+20.9 +15.4 71 +25 +25 комфорт 1007.2 1009.3
03 16.07 штиль 0 20 км 10/6 600 м
[Cb cap Ac cuf]
+21.9 +15.1 65 +25 +26 комфорт 1007.9 1010.0 +20.7
06 16.07 С 4 10 км гроза, ливневой дождь 10/6 600 м
[Cb cap Ac cuf]
+20.6 +16.9 79 +24 +25 комфорт 1008.7 1010.8 +20.1
09 16.07 СВ 3 4000 м ливневой дождь {гроза} 10/8 600 м
[Cb cap Ac cuf]
+19.4 +16.3 82 +22 +22 комфорт 1007.6 1009.7
12 16.07 В 7-11
{13}
10 км гроза, ливневой дождь 10/5 600 м
[Cb cap Ac cuf]
+21.0 +17.3 79 +25 +25 комфорт 1006.5 1008.6
15 16.07 СВ 4
{11}
20 км гроза без осадков {ливн. осадки} 10/4 600 м
[Cb cap Ac cuf]
+20.9 +15.9 73 +24 +25 комфорт 1005.9 1008.0 +23.0 10
18 16.07 СВ 3 10 км в посл. час гроза {ливн. осадки} 9/9 600 м
[Cb cap]
+20.0 +16.4 80 +23 +23 комфорт 1006.3 1008.4
21 16.07 СЗ 2 10 км зарница 9/9 600 м
[Cb cap]
+19.2 +16.6 85 +21 +21 комфорт 1006.8 1008.9
00 17.07 СЗ 2 10 км 4/0
[Ac cuf Ci fib]
+19.0 +15.2 79 +21 +21 комфорт 1006.3 1008.4
03 17.07 З 3 20 км 3/0
[Ac cast Ci fib]
+21.4 +14.8 66 +24 +26 комфорт 1006.6 1008.7 +18.6
06 17.07 З 3 20 км ясно +26.4 +17.3 57 +30 +40 душно 1006.6 1008.6
09 17.07 З 3 20 км 1/0
[Ci fib]
+29.5 +16.6 46 +33 +48 душно 1006.3 1008.3
12 17.07 З 3 20 км 1/0
[Ci sp]
+31.9 +12.3 30 +32 +41 жарко 1005.8 1007.8
15 17.07 З 3 20 км 3/0
[Ac cast Ci fib]
+30.1 +11.6 32 +31 +31 жарко 1005.9 1007.9 +32.3
18 17.07 СЗ 3 10 км ясно +25.3 +14.2 50 +28 +28 жарко 1006.9 1008.9
21 17.07 СЗ 3 10 км ясно +22.2 +14.8 63 +26 +26 душно 1006.9 1009.0
00 18.07 С 1 10 км 3/0
[Ac cuf]
+19.5 +15.0 75 +22 +22 комфорт 1007.2 1009.3
03 18.07 С 1 20 км 3/3 600 м
[Sc diur, vesp]
+21.5 +15.6 69 +25 +26 комфорт 1007.6 1009.7 +18.5

 

Местоположение метеостанции Досанг (Астраханская область, Россия): широта 46.92 долгота 47.93 высота над уровнем моря -19 м.

В архиве по умолчанию представлена погода в Досанге за последнюю неделю. Архивные данные за месяц целиком и за предыдущие месяцы, начиная с января 2011 года, Вы можете получить, выбрав интересующий диапазон дат из раскрывающегося списка и нажав кнопку "Ввод!".


*Определитесь, кто Вы:
робот инопланетянин человек

Внимание! Время в таблицах - всемирное. Для получения местного времени необходимо прибавить поправку, которая равна 4 ч.

Смотрите также архив погоды в соседних городах и на ближайших метеорологических станциях:

Погода в Астрахани (Астраханская область, Россия) (71 км)
Погода в Харабали (Астраханская область, Россия) (74 км)
Погода в Зеленге (Астраханская область, Россия) (98 км)
Погода в Ганюшкино (Атырауская область, Казахстан) (108 км)
Погода в Юсте (Калмыкия, Россия) (124 км)
Погода в Жанауштогане (Атырауская область, Казахстан) (127 км)
Погода в Лимане (Астраханская область, Россия) (136 км)
Погода в Утте (Калмыкия, Россия) (158 км)
Погода в Исатай (Атырауская область, Казахстан) (163 км)
Погода в Верхнем Баскунчаке (Астраханская область, Россия) (170 км)

Пояснения к столбцам:

Ветер - указаны скорость ветра в м/с - средняя за 10 мин, порывы в срок и между сроками (в фигурных скобках) и направление, откуда дует ветер: С - северный, СВ - северо-восточный, В - восточный, ЮВ - юго-восточный, Ю - южный, ЮЗ - юго-западный, З - западный, СЗ - северо-западный.
Видимость - горизонтальная дальность видимости в метрах или километрах. При видимости от 1 до 10 км при отсутствии осадков обычно наблюдается дымка, при ухудшении видимости до 1 км и менее - туман. В сухую погоду видимость может ухудшаться дымом, пылью или мглою.
Явления - указаны атмосферные явления, наблюдавшиеся в срок или в последний час перед сроком; фигурными скобками обозначены явления, наблюдавшиеся между сроками (за 1-3 часа до срока); квадратными скобками обозначены град или гололедные отложения с указанием их диаметра в мм.
Облачность - указаны через наклонную черту общая и нижняя облачность в баллах и высота нижней границы облаков в метрах; квадратными скобками обозначены формы облаков: Ci - перистые, Cs - перисто-слоистые, Cc - перисто-кучевые, Ac - высококучевые, As - высокослоистые, Sc - слоисто-кучевые, Ns - слоисто-дождевые, Cu - кучевые, Cb - кучево-дождевые. Подробнее классификацию облаков см. в Атласе облаков (PDF).
T - Температура воздуха - температура, измеренная на высоте 2 м над землей.
Td - Температура точки росы - температура, при понижении до которой содержащийся в воздухе водяной пар достигнет насыщения.
f - Относительная влажность воздуха - влажноcть воздуха, измеренная на высоте 2 м над землей.
Te - Эффективная температура - температура, которую ощущает одетый по сезону человек в тени. Характеристика душности погоды. При расчете учитывается влияние влажности воздуха и скорости ветра на теплоощущения человека.
Tes - Эффективная температура на солнце - температура, которую ощущает человек, с поправкой на солнечный нагрев. Характеристика знойности погоды. Зависит от высоты солнца над горизонтом, облачности и скорости ветра. Ночью, в пасмурную погоду, а также при ветре 12 м/с и более поправка равна нулю.
P - Атмосферное давление - приведенное к уровню моря атмосферное давление.
Po - Атмосферное давление - измеренное на уровне метеостанции атмосферное давление.
Tmin - Минимальная температура - минимум температуры воздуха на высоте 2 м над землей.
Tmax - Максимальная температура - максимум температуры воздуха на высоте 2 м над землей.
R - Количество осадков - Количество выпавших осадков за период времени, мм. При наведении курсора мыши на число - период времени, за который выпало указанное количество осадков.
R24 - Количество осадков - Количество выпавших осадков за 24 часа, мм.
S - Снежный покров - Высота снежного покрова, см. При наведении курсора мыши на число - состояние снежного покрова и степень покрытия местности в баллах.